,,,PA_Meas_PMT16A,,PR_Meas_QMR101_102,,RH_Meas_QMH101,,SR_Meas_QMS101,,TA_Meas_QMH101,,GenWind,,GenWind,
date,time,status,PA,status,PR,status,RH,status,SR,status,TA,status,DirAvg,status,SpdAvg,
2011-04-29, 00:00:04,VALID,999.089,VALID,0,VALID,93.0432,VALID,0,VALID,23.8555,VALID,106,VALID,0.691016,
2011-04-29, 00:01:04,VALID,999.067,VALID,0,VALID,93.0203,VALID,0,VALID,23.875,VALID,106,VALID,0.687109,
2011-04-29, 00:02:04,VALID,999.036,VALID,0,VALID,93.028,VALID,0,VALID,23.8963,VALID,106,VALID,0.610547,
2011-04-29, 00:03:04,VALID,999.015,VALID,0,VALID,93.0203,VALID,0,VALID,23.8963,VALID,106,VALID,0.258203,
2011-04-29, 00:04:04,VALID,999.004,VALID,0,VALID,93.0356,VALID,0,VALID,23.875,VALID,106,VALID,0.312109,
2011-04-29, 00:05:04,VALID,999.001,VALID,0,VALID,93.0356,VALID,0,VALID,23.875,VALID,106,VALID,0.448047,
2011-04-29, 00:06:04,VALID,998.982,VALID,0,VALID,93.028,VALID,0,VALID,23.875,VALID,124,VALID,0.435547,
2011-04-29, 00:07:04,VALID,998.976,VALID,0,VALID,93.0203,VALID,0,VALID,23.8555,VALID,124,VALID,0.510547,
2011-04-29, 00:08:04,VALID,998.995,VALID,0,VALID,93.0203,VALID,0,VALID,23.8573,VALID,133,VALID,1.23359,
2011-04-29, 00:09:04,VALID,998.993,VALID,0,VALID,93.0127,VALID,0,VALID,23.8555,VALID,129,VALID,0.968359,
2011-04-29, 00:10:04,VALID,999.033,VALID,0,VALID,93.0127,VALID,0,VALID,23.875,VALID,129,VALID,0.887891,
2011-04-29, 00:11:04,VALID,999.01,VALID,0,VALID,93.0051,VALID,0,VALID,23.8945,VALID,117,VALID,0.770703,
2011-04-29, 00:12:04,VALID,999.039,VALID,0,VALID,92.9593,VALID,0,VALID,23.9159,VALID,116,VALID,0.539453,
2011-04-29, 00:13:04,VALID,999.046,VALID,0,VALID,92.9288,VALID,0,VALID,23.9159,VALID,123,VALID,1.65234,
2011-04-29, 00:14:04,VALID,999.053,VALID,0,VALID,92.9059,VALID,0,VALID,23.9354,VALID,115,VALID,1.22617,
2011-04-29, 00:15:04,VALID,999.029,VALID,0,VALID,92.8372,VALID,0,VALID,23.9354,VALID,124,VALID,1.01914,
2011-04-29, 00:16:04,VALID,999.012,VALID,0,VALID,92.7838,VALID,0,VALID,23.9354,VALID,122,VALID,1.24688,
2011-04-29, 00:17:04,VALID,998.996,VALID,0,VALID,92.7075,VALID,0,VALID,23.9336,VALID,120,VALID,0.924219,
2011-04-29, 00:18:04,VALID,999.012,VALID,0,VALID,92.6388,VALID,0,VALID,23.9744,VALID,132,VALID,0.991016,
2011-04-29, 00:19:04,VALID,998.982,VALID,0,VALID,92.5702,VALID,0,VALID,23.9744,VALID,133,VALID,1.01719,
2011-04-29, 00:20:04,VALID,998.937,VALID,0,VALID,92.5015,VALID,0,VALID,23.9744,VALID,135,VALID,0.779688,
2011-04-29, 00:21:04,VALID,998.939,VALID,0,VALID,92.4252,VALID,0,VALID,23.9744,VALID,138,VALID,0.197266,
2011-04-29, 00:22:04,VALID,998.914,VALID,0,VALID,92.3566,VALID,0,VALID,23.9744,VALID,138,VALID,0.0882813,
2011-04-29, 00:23:04,VALID,998.864,VALID,0,VALID,92.2497,VALID,0.112286,VALID,23.9744,VALID,152,VALID,0.441797,
2011-04-29, 00:24:04,VALID,998.884,VALID,0,VALID,92.2268,VALID,0,VALID,23.9549,VALID,152,VALID,0.0753906,
2011-04-29, 00:25:04,VALID,998.895,VALID,0,VALID,92.1734,VALID,0,VALID,23.9549,VALID,152,VALID,0.314063,
2011-04-29, 00:26:04,VALID,998.899,VALID,0,VALID,92.1734,VALID,0,VALID,23.9549,VALID,104,VALID,0.474219,
2011-04-29, 00:27:04,VALID,998.89,VALID,0,VALID,92.12,VALID,0,VALID,23.9354,VALID,96,VALID,0.753125,
2011-04-29, 00:28:04,VALID,998.874,VALID,0,VALID,92.1277,VALID,0,VALID,23.9549,VALID,96,VALID,0.505078,
2011-04-29, 00:29:04,VALID,998.891,VALID,0,VALID,92.1048,VALID,0,VALID,23.9354,VALID,102,VALID,0.548437,
2011-04-29, 00:30:04,VALID,998.911,VALID,0,VALID,92.1124,VALID,0,VALID,23.9354,VALID,103,VALID,0.428906,
2011-04-29, 00:31:04,VALID,998.887,VALID,0,VALID,92.1124,VALID,0,VALID,23.9354,VALID,103,VALID,0.216016,
2011-04-29, 00:32:04,VALID,998.899,VALID,0,VALID,92.1429,VALID,0,VALID,23.9354,VALID,103,VALID,0.129688,
2011-04-29, 00:33:04,VALID,998.881,VALID,0,VALID,92.1582,VALID,0,VALID,23.8945,VALID,100,VALID,0.628125,
2011-04-29, 00:34:04,VALID,998.878,VALID,0,VALID,92.204,VALID,0,VALID,23.9159,VALID,99,VALID,0.264062,
2011-04-29, 00:35:04,VALID,998.839,VALID,0,VALID,92.2497,VALID,0,VALID,23.9159,VALID,99,VALID,0.214844,
2011-04-29, 00:36:04,VALID,998.834,VALID,0,VALID,92.2726,VALID,0,VALID,23.8963,VALID,99,VALID,0,
2011-04-29, 00:37:04,VALID,998.818,VALID,0,VALID,92.3031,VALID,0,VALID,23.8963,VALID,99,VALID,0,
2011-04-29, 00:38:04,VALID,998.802,VALID,0.5,VALID,92.326,VALID,0,VALID,23.8963,VALID,348,VALID,0,
2011-04-29, 00:39:04,VALID,998.806,VALID,0,VALID,92.3337,VALID,0,VALID,23.9159,VALID,328,VALID,0,
2011-04-29, 00:40:04,VALID,998.793,VALID,0,VALID,92.3566,VALID,0,VALID,23.9354,VALID,328,VALID,0,
2011-04-29, 00:41:04,VALID,998.781,VALID,0,VALID,92.3718,VALID,0,VALID,23.9354,VALID,328,VALID,0,
2011-04-29, 00:42:04,VALID,998.758,VALID,0,VALID,92.3871,VALID,0,VALID,23.8945,VALID,328,VALID,0,
2011-04-29, 00:43:04,VALID,998.721,VALID,0,VALID,92.3794,VALID,0,VALID,23.9159,VALID,328,VALID,0,
2011-04-29, 00:44:04,VALID,998.715,VALID,0,VALID,92.41,VALID,0,VALID,23.9159,VALID,328,VALID,0,
2011-04-29, 00:45:04,VALID,998.731,VALID,0,VALID,92.4328,VALID,0,VALID,23.9159,VALID,328,VALID,0,
2011-04-29, 00:46:04,VALID,998.689,VALID,0,VALID,92.4176,VALID,0,VALID,23.9372,VALID,328,VALID,0,
2011-04-29, 00:47:04,VALID,998.713,VALID,0,VALID,92.4634,VALID,0,VALID,23.8945,VALID,328,VALID,0,
2011-04-29, 00:48:04,VALID,998.68,VALID,0,VALID,92.4786,VALID,0,VALID,23.8963,VALID,328,VALID,0,
2011-04-29, 00:49:04,VALID,998.697,VALID,0,VALID,92.5244,VALID,0,VALID,23.8963,VALID,328,VALID,0,
2011-04-29, 00:50:04,VALID,998.694,VALID,0,VALID,92.5473,VALID,0,VALID,23.8963,VALID,328,VALID,0,
2011-04-29, 00:51:04,VALID,998.687,VALID,0,VALID,92.5626,VALID,0,VALID,23.8963,VALID,328,VALID,0,
2011-04-29, 00:52:04,VALID,998.71,VALID,0,VALID,92.5854,VALID,0,VALID,23.8768,VALID,328,VALID,0,
2011-04-29, 00:53:04,VALID,998.704,VALID,0,VALID,92.616,VALID,0,VALID,23.8768,VALID,328,VALID,0,
2011-04-29, 00:54:04,VALID,998.74,VALID,0,VALID,92.616,VALID,0,VALID,23.8768,VALID,328,VALID,0,
2011-04-29, 00:55:04,VALID,998.703,VALID,0,VALID,92.6236,VALID,0,VALID,23.8573,VALID,328,VALID,0,
2011-04-29, 00:56:04,VALID,998.695,VALID,0,VALID,92.6541,VALID,0,VALID,23.8573,VALID,328,VALID,0,
2011-04-29, 00:57:04,VALID,998.729,VALID,0,VALID,92.6617,VALID,0,VALID,23.8573,VALID,328,VALID,0,
2011-04-29, 00:58:04,VALID,998.72,VALID,0,VALID,92.6846,VALID,0,VALID,23.8573,VALID,291,VALID,0,
2011-04-29, 00:59:04,VALID,998.724,VALID,0,VALID,92.6999,VALID,0,VALID,23.8768,VALID,291,VALID,0,
2011-04-29, 01:00:04,VALID,998.71,VALID,0,VALID,92.7151,VALID,0,VALID,23.8768,VALID,291,VALID,0,
2011-04-29, 01:01:04,VALID,998.757,VALID,0,VALID,92.738,VALID,0,VALID,23.8768,VALID,291,VALID,0,
2011-04-29, 01:02:04,VALID,998.733,VALID,0,VALID,92.738,VALID,0,VALID,23.8768,VALID,291,VALID,0,
2011-04-29, 01:03:04,VALID,998.732,VALID,0,VALID,92.7457,VALID,0,VALID,23.8573,VALID,291,VALID,0,
2011-04-29, 01:04:04,VALID,998.711,VALID,0,VALID,92.7533,VALID,0,VALID,23.8573,VALID,291,VALID,0,
2011-04-29, 01:05:04,VALID,998.701,VALID,0,VALID,92.7838,VALID,0,VALID,23.8378,VALID,291,VALID,0,
2011-04-29, 01:06:04,VALID,998.73,VALID,0,VALID,92.7838,VALID,0,VALID,23.8378,VALID,291,VALID,0,
2011-04-29, 01:07:04,VALID,998.704,VALID,0,VALID,92.7838,VALID,0,VALID,23.8573,VALID,238,VALID,0,
2011-04-29, 01:08:04,VALID,998.718,VALID,0,VALID,92.8067,VALID,0,VALID,23.8768,VALID,168,VALID,1.18008,
2011-04-29, 01:09:04,VALID,998.691,VALID,0,VALID,92.8143,VALID,0,VALID,23.8963,VALID,168,VALID,0.944141,
2011-04-29, 01:10:04,VALID,998.675,VALID,0,VALID,92.8448,VALID,0,VALID,23.9354,VALID,178,VALID,1.15039,
2011-04-29, 01:11:04,VALID,998.657,VALID,0,VALID,92.8448,VALID,0,VALID,23.9549,VALID,182,VALID,1.32422,
2011-04-29, 01:12:04,VALID,998.654,VALID,0,VALID,92.8754,VALID,0,VALID,24.0134,VALID,185,VALID,1.00664,
2011-04-29, 01:13:04,VALID,998.665,VALID,0,VALID,92.8525,VALID,0,VALID,24.0329,VALID,188,VALID,1.29688,
2011-04-29, 01:14:04,VALID,998.664,VALID,0,VALID,92.8525,VALID,0,VALID,24.0525,VALID,199,VALID,1.11602,
2011-04-29, 01:15:04,VALID,998.666,VALID,0,VALID,92.8143,VALID,0,VALID,24.072,VALID,197,VALID,0.622266,
2011-04-29, 01:16:04,VALID,998.658,VALID,0,VALID,92.7533,VALID,0,VALID,24.0915,VALID,200,VALID,0.511719,
2011-04-29, 01:17:04,VALID,998.646,VALID,0,VALID,92.7151,VALID,0,VALID,24.0915,VALID,200,VALID,0.175,
2011-04-29, 01:18:04,VALID,998.672,VALID,0,VALID,92.6465,VALID,0,VALID,24.0915,VALID,199,VALID,0.364453,
2011-04-29, 01:19:04,VALID,998.645,VALID,0,VALID,92.5549,VALID,0,VALID,24.0897,VALID,191,VALID,0.493359,
2011-04-29, 01:20:04,VALID,998.652,VALID,0,VALID,92.4557,VALID,0,VALID,24.0897,VALID,204,VALID,0.262891,
2011-04-29, 01:21:04,VALID,998.625,VALID,0,VALID,92.3794,VALID,0,VALID,24.111,VALID,204,VALID,0.178906,
2011-04-29, 01:22:04,VALID,998.643,VALID,0,VALID,92.3184,VALID,0,VALID,24.0915,VALID,204,VALID,0.179297,
2011-04-29, 01:23:04,VALID,998.629,VALID,0,VALID,92.2803,VALID,0,VALID,24.072,VALID,204,VALID,0,
2011-04-29, 01:24:04,VALID,998.62,VALID,0,VALID,92.2345,VALID,0,VALID,24.072,VALID,204,VALID,0.00117188,
2011-04-29, 01:25:04,VALID,998.65,VALID,0,VALID,92.1887,VALID,0,VALID,24.0525,VALID,204,VALID,0.298047,
2011-04-29, 01:26:04,VALID,998.61,VALID,0,VALID,92.1811,VALID,0,VALID,24.0329,VALID,204,VALID,0.307422,
2011-04-29, 01:27:04,VALID,998.63,VALID,0,VALID,92.1353,VALID,0,VALID,24.0134,VALID,202,VALID,0.179688,
2011-04-29, 01:28:04,VALID,998.623,VALID,0,VALID,92.12,VALID,0,VALID,24.0134,VALID,202,VALID,0.127344,
2011-04-29, 01:29:04,VALID,998.601,VALID,0,VALID,92.1277,VALID,0,VALID,23.9921,VALID,202,VALID,0,
2011-04-29, 01:30:04,VALID,998.613,VALID,0,VALID,92.1124,VALID,0,VALID,23.9939,VALID,202,VALID,0.000390625,
2011-04-29, 01:31:04,VALID,998.587,VALID,0,VALID,92.1048,VALID,0,VALID,23.9726,VALID,202,VALID,0.194141,
2011-04-29, 01:32:04,VALID,998.553,VALID,0,VALID,92.0971,VALID,0,VALID,23.9939,VALID,202,VALID,0,
2011-04-29, 01:33:04,VALID,998.536,VALID,0,VALID,92.12,VALID,0,VALID,23.9744,VALID,202,VALID,0,
2011-04-29, 01:34:04,VALID,998.502,VALID,0,VALID,92.1353,VALID,0,VALID,23.9744,VALID,202,VALID,0,
2011-04-29, 01:35:04,VALID,998.518,VALID,0,VALID,92.1811,VALID,0,VALID,23.9744,VALID,202,VALID,0,
2011-04-29, 01:36:04,VALID,998.439,VALID,0,VALID,92.204,VALID,0,VALID,23.9549,VALID,202,VALID,0,
2011-04-29, 01:37:04,VALID,998.472,VALID,0,VALID,92.2497,VALID,0,VALID,23.9549,VALID,202,VALID,0,
2011-04-29, 01:38:04,VALID,998.44,VALID,0,VALID,92.265,VALID,0,VALID,23.9354,VALID,114,VALID,0,
2011-04-29, 01:39:04,VALID,998.428,VALID,0,VALID,92.3031,VALID,0,VALID,23.9159,VALID,114,VALID,0.143359,
2011-04-29, 01:40:04,VALID,998.419,VALID,0,VALID,92.326,VALID,0,VALID,23.8945,VALID,114,VALID,0.591797,
2011-04-29, 01:41:04,VALID,998.437,VALID,0,VALID,92.3489,VALID,0,VALID,23.914,VALID,114,VALID,0.456641,
2011-04-29, 01:42:04,VALID,998.398,VALID,0,VALID,92.3718,VALID,0,VALID,23.9354,VALID,114,VALID,0.383984,
2011-04-29, 01:43:04,VALID,998.379,VALID,0,VALID,92.4023,VALID,0,VALID,23.9354,VALID,114,VALID,0,
2011-04-29, 01:44:04,VALID,998.357,VALID,0.5,VALID,92.4023,VALID,0,VALID,23.9159,VALID,114,VALID,0.173438,
2011-04-29, 01:45:04,VALID,998.359,VALID,0,VALID,92.4252,VALID,0,VALID,23.9372,VALID,114,VALID,0,
2011-04-29, 01:46:04,VALID,998.323,VALID,0,VALID,92.4634,VALID,0,VALID,23.9177,VALID,114,VALID,0,
2011-04-29, 01:47:04,VALID,998.322,VALID,0,VALID,92.4939,VALID,0,VALID,23.9177,VALID,114,VALID,0,
2011-04-29, 01:48:04,VALID,998.309,VALID,0,VALID,92.5091,VALID,0,VALID,23.9177,VALID,114,VALID,0,
2011-04-29, 01:49:04,VALID,998.323,VALID,0,VALID,92.532,VALID,0,VALID,23.8768,VALID,114,VALID,0,
2011-04-29, 01:50:04,VALID,998.295,VALID,0,VALID,92.5473,VALID,0,VALID,23.8573,VALID,114,VALID,0,
2011-04-29, 01:51:04,VALID,998.295,VALID,0,VALID,92.5473,VALID,0,VALID,23.8786,VALID,114,VALID,0,
2011-04-29, 01:52:04,VALID,998.269,VALID,0,VALID,92.5549,VALID,0,VALID,23.8786,VALID,114,VALID,0,
2011-04-29, 01:53:04,VALID,998.27,VALID,0,VALID,92.5778,VALID,0,VALID,23.8591,VALID,114,VALID,0,
2011-04-29, 01:54:04,VALID,998.24,VALID,0,VALID,92.6007,VALID,0,VALID,23.8591,VALID,114,VALID,0,
2011-04-29, 01:55:04,VALID,998.242,VALID,0,VALID,92.616,VALID,0,VALID,23.8591,VALID,114,VALID,0,
2011-04-29, 01:56:04,VALID,998.192,VALID,0,VALID,92.6388,VALID,0,VALID,23.8786,VALID,114,VALID,0,
2011-04-29, 01:57:04,VALID,998.141,VALID,0,VALID,92.6312,VALID,0,VALID,23.8396,VALID,114,VALID,0,
2011-04-29, 01:58:04,VALID,998.152,VALID,0,VALID,92.6694,VALID,0,VALID,23.8396,VALID,114,VALID,0,
2011-04-29, 01:59:04,VALID,998.124,VALID,0,VALID,92.6923,VALID,0,VALID,23.8396,VALID,114,VALID,0,
2011-04-29, 02:00:04,VALID,998.115,VALID,0,VALID,92.7075,VALID,0,VALID,23.8378,VALID,114,VALID,0,
2011-04-29, 02:01:04,VALID,998.114,VALID,0,VALID,92.7228,VALID,0,VALID,23.8378,VALID,114,VALID,0,
2011-04-29, 02:02:04,VALID,998.11,VALID,0,VALID,92.738,VALID,0,VALID,23.8183,VALID,114,VALID,0,
2011-04-29, 02:03:04,VALID,998.084,VALID,0,VALID,92.7533,VALID,0,VALID,23.8183,VALID,114,VALID,0,
2011-04-29, 02:04:04,VALID,998.139,VALID,0,VALID,92.7609,VALID,0,VALID,23.8183,VALID,114,VALID,0,
2011-04-29, 02:05:04,VALID,998.14,VALID,0,VALID,92.7685,VALID,0,VALID,23.797,VALID,114,VALID,0,
2011-04-29, 02:06:04,VALID,998.111,VALID,0,VALID,92.7762,VALID,0,VALID,23.8183,VALID,114,VALID,0.26875,
2011-04-29, 02:07:04,VALID,998.116,VALID,0,VALID,92.7685,VALID,0,VALID,23.8183,VALID,114,VALID,0.377344,
2011-04-29, 02:08:04,VALID,998.121,VALID,0,VALID,92.7838,VALID,0,VALID,23.7988,VALID,114,VALID,0.541797,
2011-04-29, 02:09:04,VALID,998.113,VALID,0,VALID,92.7838,VALID,0,VALID,23.8183,VALID,114,VALID,0.530859,
2011-04-29, 02:10:04,VALID,998.091,VALID,0,VALID,92.7838,VALID,0,VALID,23.8378,VALID,114,VALID,0.433594,
2011-04-29, 02:11:04,VALID,998.076,VALID,0,VALID,92.7762,VALID,0,VALID,23.8378,VALID,114,VALID,0.883984,
2011-04-29, 02:12:04,VALID,998.041,VALID,0,VALID,92.7685,VALID,0,VALID,23.8183,VALID,108,VALID,1.00508,
2011-04-29, 02:13:04,VALID,998.011,VALID,0,VALID,92.7609,VALID,0,VALID,23.8165,VALID,108,VALID,0.678125,
2011-04-29, 02:14:04,VALID,998.032,VALID,0,VALID,92.7533,VALID,0,VALID,23.8378,VALID,108,VALID,0.821875,
2011-04-29, 02:15:04,VALID,998.03,VALID,0,VALID,92.7457,VALID,0,VALID,23.8378,VALID,108,VALID,0.935547,
2011-04-29, 02:16:04,VALID,998.031,VALID,0,VALID,92.7304,VALID,0,VALID,23.8378,VALID,125,VALID,0.875781,
2011-04-29, 02:17:04,VALID,998.008,VALID,0,VALID,92.7228,VALID,0,VALID,23.8378,VALID,125,VALID,0.720703,
2011-04-29, 02:18:04,VALID,998.018,VALID,0,VALID,92.7075,VALID,0,VALID,23.8378,VALID,125,VALID,0.470313,
2011-04-29, 02:19:04,VALID,998.03,VALID,0,VALID,92.7075,VALID,0,VALID,23.8183,VALID,124,VALID,0.420703,
2011-04-29, 02:20:04,VALID,998.002,VALID,0,VALID,92.7075,VALID,0,VALID,23.797,VALID,125,VALID,0.347656,
2011-04-29, 02:21:04,VALID,998.064,VALID,0,VALID,92.6846,VALID,0,VALID,23.8183,VALID,125,VALID,0.217187,
2011-04-29, 02:22:04,VALID,998.051,VALID,0,VALID,92.6846,VALID,0,VALID,23.7988,VALID,125,VALID,0.288281,
2011-04-29, 02:23:04,VALID,998.096,VALID,0,VALID,92.677,VALID,0,VALID,23.7579,VALID,125,VALID,0.487891,
2011-04-29, 02:24:04,VALID,998.083,VALID,0,VALID,92.6694,VALID,0,VALID,23.7793,VALID,125,VALID,0.4,
2011-04-29, 02:25:04,VALID,998.124,VALID,0,VALID,92.6923,VALID,0,VALID,23.7793,VALID,125,VALID,0.592578,
2011-04-29, 02:26:04,VALID,998.096,VALID,0,VALID,92.6999,VALID,0,VALID,23.7793,VALID,147,VALID,0.699219,
2011-04-29, 02:27:04,VALID,998.107,VALID,0,VALID,92.7304,VALID,0,VALID,23.7793,VALID,150,VALID,0.514453,
2011-04-29, 02:28:04,VALID,998.121,VALID,0,VALID,92.7151,VALID,0,VALID,23.7793,VALID,150,VALID,0.530078,
2011-04-29, 02:29:04,VALID,998.142,VALID,0,VALID,92.7304,VALID,0,VALID,23.7775,VALID,157,VALID,0.606641,
2011-04-29, 02:30:04,VALID,998.141,VALID,0,VALID,92.738,VALID,0,VALID,23.8183,VALID,164,VALID,0.70625,
2011-04-29, 02:31:04,VALID,998.185,VALID,0,VALID,92.7533,VALID,0,VALID,23.8183,VALID,164,VALID,0.810547,
2011-04-29, 02:32:04,VALID,998.203,VALID,0,VALID,92.7457,VALID,0,VALID,23.8183,VALID,164,VALID,0.943359,
2011-04-29, 02:33:04,VALID,998.204,VALID,0,VALID,92.7533,VALID,0,VALID,23.8573,VALID,166,VALID,1.06992,
2011-04-29, 02:34:04,VALID,998.226,VALID,0,VALID,92.7609,VALID,0,VALID,23.8378,VALID,173,VALID,1.33516,
2011-04-29, 02:35:04,VALID,998.226,VALID,0,VALID,92.738,VALID,0,VALID,23.8573,VALID,178,VALID,1.63672,
2011-04-29, 02:36:04,VALID,998.215,VALID,0,VALID,92.7151,VALID,0,VALID,23.8768,VALID,175,VALID,1.00078,
2011-04-29, 02:37:04,VALID,998.214,VALID,0,VALID,92.6694,VALID,0,VALID,23.8963,VALID,162,VALID,1.04727,
2011-04-29, 02:38:04,VALID,998.231,VALID,0,VALID,92.6236,VALID,0,VALID,23.8963,VALID,165,VALID,0.921094,
2011-04-29, 02:39:04,VALID,998.214,VALID,0,VALID,92.5473,VALID,0,VALID,23.9159,VALID,166,VALID,0.616016,
2011-04-29, 02:40:04,VALID,998.21,VALID,0,VALID,92.471,VALID,0,VALID,23.9159,VALID,166,VALID,0.649219,
2011-04-29, 02:41:04,VALID,998.223,VALID,0,VALID,92.41,VALID,0,VALID,23.9159,VALID,157,VALID,0.592578,
2011-04-29, 02:42:04,VALID,998.235,VALID,0,VALID,92.326,VALID,0,VALID,23.9159,VALID,130,VALID,0.878516,
2011-04-29, 02:43:04,VALID,998.198,VALID,0,VALID,92.204,VALID,0,VALID,23.8768,VALID,128,VALID,0.715625,
2011-04-29, 02:44:04,VALID,998.208,VALID,0,VALID,92.12,VALID,0,VALID,23.8573,VALID,128,VALID,0.467187,
2011-04-29, 02:45:04,VALID,998.17,VALID,0,VALID,92.0514,VALID,0,VALID,23.836,VALID,128,VALID,0.00585938,
2011-04-29, 02:46:04,VALID,998.167,VALID,0,VALID,91.9751,VALID,0,VALID,23.8573,VALID,128,VALID,0.0109375,
2011-04-29, 02:47:04,VALID,998.175,VALID,0,VALID,91.9522,VALID,0,VALID,23.8183,VALID,128,VALID,0.337109,
2011-04-29, 02:48:04,VALID,998.212,VALID,0,VALID,91.9598,VALID,0,VALID,23.7775,VALID,128,VALID,0.591016,
2011-04-29, 02:49:04,VALID,998.179,VALID,0,VALID,91.9827,VALID,0,VALID,23.7775,VALID,122,VALID,0,
2011-04-29, 02:50:04,VALID,998.167,VALID,0,VALID,91.998,VALID,0,VALID,23.7793,VALID,118,VALID,0.213281,
2011-04-29, 02:51:04,VALID,998.161,VALID,0,VALID,92.0056,VALID,0,VALID,23.7597,VALID,118,VALID,0.479297,
2011-04-29, 02:52:04,VALID,998.114,VALID,0,VALID,92.0361,VALID,0,VALID,23.7579,VALID,118,VALID,0,
2011-04-29, 02:53:04,VALID,998.103,VALID,0,VALID,92.059,VALID,0,VALID,23.7384,VALID,118,VALID,0.123438,
2011-04-29, 02:54:04,VALID,998.123,VALID,0,VALID,92.0819,VALID,0,VALID,23.7597,VALID,118,VALID,0.0429688,
2011-04-29, 02:55:04,VALID,998.037,VALID,0,VALID,92.12,VALID,0.112286,VALID,23.7384,VALID,121,VALID,0.311328,
2011-04-29, 02:56:04,VALID,998.08,VALID,0,VALID,92.1734,VALID,0,VALID,23.7384,VALID,145,VALID,0.264062,
2011-04-29, 02:57:04,VALID,998.076,VALID,0,VALID,92.2116,VALID,0,VALID,23.7579,VALID,145,VALID,0.328125,
2011-04-29, 02:58:04,VALID,998.069,VALID,0,VALID,92.2268,VALID,0,VALID,23.7793,VALID,145,VALID,0.0347656,
2011-04-29, 02:59:04,VALID,998.038,VALID,0,VALID,92.2726,VALID,0,VALID,23.7775,VALID,145,VALID,0.336719,
2011-04-29, 03:00:04,VALID,998.068,VALID,0,VALID,92.2726,VALID,0,VALID,23.7775,VALID,145,VALID,0.497656,
2011-04-29, 03:01:04,VALID,998.071,VALID,0,VALID,92.2955,VALID,0.112286,VALID,23.7793,VALID,254,VALID,0.5625,
2011-04-29, 03:02:04,VALID,998.058,VALID,0,VALID,92.3184,VALID,0,VALID,23.7384,VALID,254,VALID,0.607813,
2011-04-29, 03:03:04,VALID,998.057,VALID,0,VALID,92.3489,VALID,0,VALID,23.7384,VALID,254,VALID,0.321094,
2011-04-29, 03:04:04,VALID,998.049,VALID,0,VALID,92.3718,VALID,0,VALID,23.7384,VALID,254,VALID,0.486328,
2011-04-29, 03:05:04,VALID,998.057,VALID,0.5,VALID,92.3947,VALID,0,VALID,23.7189,VALID,254,VALID,0.392578,
2011-04-29, 03:06:04,VALID,998.099,VALID,0,VALID,92.4176,VALID,0,VALID,23.6799,VALID,254,VALID,0.436719,
2011-04-29, 03:07:04,VALID,998.087,VALID,0,VALID,92.4328,VALID,0,VALID,23.7012,VALID,254,VALID,0.440234,
2011-04-29, 03:08:04,VALID,998.131,VALID,0,VALID,92.4634,VALID,0,VALID,23.6604,VALID,254,VALID,0.237891,
2011-04-29, 03:09:04,VALID,998.139,VALID,0,VALID,92.471,VALID,0,VALID,23.6622,VALID,254,VALID,0.350391,
2011-04-29, 03:10:04,VALID,998.126,VALID,0,VALID,92.471,VALID,0,VALID,23.6214,VALID,254,VALID,0.538672,
2011-04-29, 03:11:04,VALID,998.113,VALID,0,VALID,92.5244,VALID,0,VALID,23.6214,VALID,254,VALID,0.282031,
2011-04-29, 03:12:04,VALID,998.11,VALID,0,VALID,92.5778,VALID,0,VALID,23.6214,VALID,254,VALID,0.310156,
2011-04-29, 03:13:04,VALID,998.12,VALID,0,VALID,92.5854,VALID,0,VALID,23.6214,VALID,254,VALID,0,
2011-04-29, 03:14:04,VALID,998.151,VALID,0,VALID,92.616,VALID,0.112286,VALID,23.6019,VALID,254,VALID,0,
2011-04-29, 03:15:04,VALID,998.127,VALID,0,VALID,92.6312,VALID,0,VALID,23.5823,VALID,254,VALID,0,
2011-04-29, 03:16:04,VALID,998.14,VALID,0,VALID,92.6541,VALID,0.112286,VALID,23.6019,VALID,254,VALID,0,
2011-04-29, 03:17:04,VALID,998.156,VALID,0,VALID,92.6999,VALID,0,VALID,23.6036,VALID,254,VALID,0,
2011-04-29, 03:18:04,VALID,998.18,VALID,0,VALID,92.738,VALID,0,VALID,23.5823,VALID,254,VALID,0,
2011-04-29, 03:19:04,VALID,998.188,VALID,0,VALID,92.7609,VALID,0,VALID,23.5628,VALID,254,VALID,0,
2011-04-29, 03:20:04,VALID,998.16,VALID,0,VALID,92.7914,VALID,0,VALID,23.5433,VALID,254,VALID,0.00703125,
2011-04-29, 03:21:04,VALID,998.19,VALID,0,VALID,92.8143,VALID,0,VALID,23.5646,VALID,254,VALID,0.491797,
2011-04-29, 03:22:04,VALID,998.174,VALID,0,VALID,92.8372,VALID,0,VALID,23.5238,VALID,254,VALID,0.579687,
2011-04-29, 03:23:04,VALID,998.174,VALID,0,VALID,92.8372,VALID,0,VALID,23.5256,VALID,320,VALID,0.672656,
2011-04-29, 03:24:04,VALID,998.168,VALID,0,VALID,92.8906,VALID,0,VALID,23.5256,VALID,345,VALID,0.795313,
2011-04-29, 03:25:04,VALID,998.145,VALID,0,VALID,92.9211,VALID,0,VALID,23.5043,VALID,358,VALID,0.753906,
2011-04-29, 03:26:04,VALID,998.148,VALID,0,VALID,92.9288,VALID,0,VALID,23.4671,VALID,358,VALID,0.497266,
2011-04-29, 03:27:04,VALID,998.114,VALID,0,VALID,92.9517,VALID,0,VALID,23.4067,VALID,358,VALID,0.210156,
2011-04-29, 03:28:04,VALID,998.097,VALID,0,VALID,92.944,VALID,0,VALID,23.3872,VALID,358,VALID,0,
2011-04-29, 03:29:04,VALID,998.063,VALID,0,VALID,92.9593,VALID,0,VALID,23.3677,VALID,358,VALID,0,
2011-04-29, 03:30:04,VALID,998.024,VALID,0,VALID,92.9822,VALID,0.112286,VALID,23.4067,VALID,358,VALID,0,
2011-04-29, 03:31:04,VALID,998.039,VALID,0,VALID,93.0051,VALID,0,VALID,23.4475,VALID,358,VALID,0,
2011-04-29, 03:32:04,VALID,998.031,VALID,0,VALID,93.028,VALID,0.112286,VALID,23.4458,VALID,358,VALID,0,
2011-04-29, 03:33:04,VALID,998.01,VALID,0,VALID,93.0432,VALID,0,VALID,23.4653,VALID,358,VALID,0,
2011-04-29, 03:34:04,VALID,998.037,VALID,0,VALID,93.0737,VALID,0,VALID,23.4653,VALID,358,VALID,0,
2011-04-29, 03:35:04,VALID,998.017,VALID,0,VALID,93.0814,VALID,0,VALID,23.4848,VALID,358,VALID,0,
2011-04-29, 03:36:04,VALID,998.045,VALID,0,VALID,93.1119,VALID,0,VALID,23.5043,VALID,271,VALID,0.00820312,
2011-04-29, 03:37:04,VALID,998.052,VALID,0,VALID,93.1043,VALID,0,VALID,23.5238,VALID,209,VALID,1.27461,
2011-04-29, 03:38:04,VALID,998.084,VALID,0,VALID,93.1195,VALID,0,VALID,23.5628,VALID,209,VALID,1.12266,
2011-04-29, 03:39:04,VALID,998.054,VALID,0,VALID,93.1271,VALID,0,VALID,23.5823,VALID,211,VALID,0.791016,
2011-04-29, 03:40:04,VALID,998.065,VALID,0,VALID,93.1424,VALID,0,VALID,23.6019,VALID,213,VALID,0.686328,
2011-04-29, 03:41:04,VALID,998.054,VALID,0,VALID,93.1195,VALID,0,VALID,23.6019,VALID,213,VALID,0.55,
2011-04-29, 03:42:04,VALID,998.071,VALID,0,VALID,93.1119,VALID,0,VALID,23.6019,VALID,213,VALID,0.505078,
2011-04-29, 03:43:04,VALID,998.076,VALID,0,VALID,93.1119,VALID,0,VALID,23.6232,VALID,213,VALID,0.268359,
2011-04-29, 03:44:04,VALID,998.084,VALID,0,VALID,93.1195,VALID,0,VALID,23.6019,VALID,196,VALID,0.803516,
2011-04-29, 03:45:04,VALID,998.112,VALID,0,VALID,93.1119,VALID,0,VALID,23.6427,VALID,204,VALID,0.919922,
2011-04-29, 03:46:04,VALID,998.126,VALID,0,VALID,93.0814,VALID,0,VALID,23.6604,VALID,197,VALID,0.579687,
2011-04-29, 03:47:04,VALID,998.116,VALID,0,VALID,93.0432,VALID,0,VALID,23.6409,VALID,179,VALID,0.588281,
2011-04-29, 03:48:04,VALID,998.105,VALID,0,VALID,93.0051,VALID,0,VALID,23.6817,VALID,162,VALID,0.682422,
2011-04-29, 03:49:04,VALID,998.131,VALID,0,VALID,92.9745,VALID,0,VALID,23.6817,VALID,162,VALID,0.647266,